date,time,SUV Intensity [MED/Hr],UV Index,Daily total [MED],Since Last [MED]
03/04/2023,00:04:48,0.000,0.0,0.0,0.0
03/04/2023,00:05:48,-0.001,0.0,0.0,0.0
03/04/2023,00:06:48,0.000,0.0,0.0,0.0
03/04/2023,00:07:48,0.000,0.0,0.0,0.0
03/04/2023,00:08:48,0.000,0.0,0.0,0.0
03/04/2023,00:09:49,0.000,0.0,0.0,0.0
03/04/2023,00:10:49,0.000,0.0,0.0,0.0
03/04/2023,00:11:48,0.000,0.0,0.0,0.0
03/04/2023,00:12:49,0.001,0.0,0.0,0.0
03/04/2023,00:13:48,0.001,0.0,0.0,0.0
03/04/2023,00:14:48,0.001,0.0,0.0,0.0
03/04/2023,00:15:49,0.000,0.0,0.0,0.0
03/04/2023,00:16:49,0.001,0.0,0.0,0.0
03/04/2023,00:17:48,0.001,0.0,0.0,0.0
03/04/2023,00:18:48,0.000,0.0,0.0,0.0
03/04/2023,00:19:48,0.001,0.0,0.0,0.0
03/04/2023,00:20:48,0.000,0.0,0.0,0.0
03/04/2023,00:21:48,0.000,0.0,0.0,0.0
03/04/2023,00:22:48,0.000,0.0,0.0,0.0
03/04/2023,00:23:48,0.000,0.0,0.0,0.0
03/04/2023,00:24:48,-0.001,0.0,0.0,0.0
03/04/2023,00:25:48,0.001,0.0,0.0,0.0
03/04/2023,00:26:48,-0.001,0.0,0.0,0.0
03/04/2023,00:27:48,0.000,0.0,0.0,0.0
03/04/2023,00:28:48,0.000,0.0,0.0,0.0
03/04/2023,00:29:49,0.000,0.0,0.0,0.0
03/04/2023,00:30:48,-0.000,0.0,0.0,0.0
03/04/2023,00:31:49,-0.001,0.0,0.0,0.0
03/04/2023,00:32:48,0.000,0.0,0.0,0.0
03/04/2023,00:33:49,0.001,0.0,0.0,0.0
03/04/2023,00:34:48,0.000,0.0,0.0,0.0
03/04/2023,00:35:48,0.001,0.0,0.0,0.0
03/04/2023,00:36:48,0.000,0.0,0.0,0.0
03/04/2023,00:37:48,-0.000,0.0,0.0,0.0
03/04/2023,00:38:48,0.000,0.0,0.0,0.0
03/04/2023,00:39:48,-0.000,0.0,0.0,0.0
03/04/2023,00:40:48,-0.001,0.0,0.0,0.0
03/04/2023,00:41:48,-0.000,0.0,0.0,0.0
03/04/2023,00:42:48,0.000,0.0,0.0,0.0
03/04/2023,00:43:48,-0.001,0.0,0.0,0.0
03/04/2023,00:44:49,0.000,0.0,0.0,0.0
03/04/2023,00:45:48,0.001,0.0,0.0,0.0
03/04/2023,00:46:48,0.001,0.0,0.0,0.0
03/04/2023,00:47:49,0.000,0.0,0.0,0.0
03/04/2023,00:48:48,0.000,0.0,0.0,0.0
03/04/2023,00:49:49,0.000,0.0,0.0,0.0
03/04/2023,00:50:49,0.000,0.0,0.0,0.0
03/04/2023,00:51:49,0.001,0.0,0.0,0.0
03/04/2023,00:52:48,-0.000,0.0,0.0,0.0
03/04/2023,00:53:48,0.001,0.0,0.0,0.0
03/04/2023,00:54:49,0.001,0.0,0.0,0.0
03/04/2023,00:55:49,0.000,0.0,0.0,0.0
03/04/2023,00:56:49,-0.001,0.0,0.0,0.0
03/04/2023,00:57:49,0.001,0.0,0.0,0.0
03/04/2023,00:58:48,-0.000,0.0,0.0,0.0
03/04/2023,00:59:48,-0.001,0.0,0.0,0.0
03/04/2023,01:00:48,0.000,0.0,0.0,0.0
03/04/2023,01:01:49,0.000,0.0,0.0,0.0
03/04/2023,01:02:49,0.000,0.0,0.0,0.0
03/04/2023,01:03:48,0.000,0.0,0.0,0.0
03/04/2023,01:04:48,0.000,0.0,0.0,0.0
03/04/2023,01:05:48,0.001,0.0,0.0,0.0
03/04/2023,01:06:48,0.001,0.0,0.0,0.0
03/04/2023,01:07:48,0.000,0.0,0.0,0.0
03/04/2023,01:08:49,0.001,0.0,0.0,0.0
03/04/2023,01:09:49,0.000,0.0,0.0,0.0
03/04/2023,01:10:49,0.000,0.0,0.0,0.0
03/04/2023,01:11:49,0.000,0.0,0.0,0.0
03/04/2023,01:12:49,0.000,0.0,0.0,0.0
03/04/2023,01:13:49,0.000,0.0,0.0,0.0
03/04/2023,01:14:49,0.000,0.0,0.0,0.0
03/04/2023,01:15:48,-0.001,0.0,0.0,0.0
03/04/2023,01:16:48,0.000,0.0,0.0,0.0
03/04/2023,01:17:49,0.000,0.0,0.0,0.0
03/04/2023,01:18:48,-0.001,0.0,0.0,0.0
03/04/2023,01:19:48,0.000,0.0,0.0,0.0
03/04/2023,01:20:49,-0.000,0.0,0.0,0.0
03/04/2023,01:21:48,0.000,0.0,0.0,0.0
03/04/2023,01:22:48,0.000,0.0,0.0,0.0
03/04/2023,01:23:48,0.001,0.0,0.0,0.0
03/04/2023,01:24:48,0.000,0.0,0.0,0.0
03/04/2023,01:25:48,0.001,0.0,0.0,0.0
03/04/2023,01:26:48,0.001,0.0,0.0,0.0
03/04/2023,01:27:48,0.000,0.0,0.0,0.0
03/04/2023,01:28:48,0.000,0.0,0.0,0.0
03/04/2023,01:29:48,0.000,0.0,0.0,0.0
03/04/2023,01:30:49,0.000,0.0,0.0,0.0
03/04/2023,01:31:49,0.000,0.0,0.0,0.0
03/04/2023,01:32:48,0.001,0.0,0.0,0.0
03/04/2023,01:33:48,-0.000,0.0,0.0,0.0
03/04/2023,01:34:48,0.001,0.0,0.0,0.0
03/04/2023,01:35:49,0.001,0.0,0.0,0.0
03/04/2023,01:36:49,-0.000,0.0,0.0,0.0
03/04/2023,01:37:49,0.000,0.0,0.0,0.0
03/04/2023,01:38:49,0.000,0.0,0.0,0.0
03/04/2023,01:39:49,0.000,0.0,0.0,0.0
03/04/2023,01:40:48,-0.000,0.0,0.0,0.0
03/04/2023,01:41:48,0.000,0.0,0.0,0.0
03/04/2023,01:42:48,-0.001,0.0,0.0,0.0
03/04/2023,01:43:49,0.000,0.0,0.0,0.0
03/04/2023,01:44:49,0.000,0.0,0.0,0.0
03/04/2023,01:45:49,0.000,0.0,0.0,0.0
03/04/2023,01:46:49,0.000,0.0,0.0,0.0
03/04/2023,01:47:48,0.000,0.0,0.0,0.0
03/04/2023,01:48:48,0.000,0.0,0.0,0.0
03/04/2023,01:49:48,0.000,0.0,0.0,0.0
03/04/2023,01:50:48,-0.001,0.0,0.0,0.0
03/04/2023,01:51:48,-0.000,0.0,0.0,0.0
03/04/2023,01:52:48,0.000,0.0,0.0,0.0
03/04/2023,01:53:48,0.000,0.0,0.0,0.0
03/04/2023,01:54:49,0.001,0.0,0.0,0.0
03/04/2023,01:55:49,0.001,0.0,0.0,0.0
03/04/2023,01:56:48,0.000,0.0,0.0,0.0
03/04/2023,01:57:48,0.001,0.0,0.0,0.0
03/04/2023,01:58:48,0.001,0.0,0.0,0.0
03/04/2023,01:59:48,0.001,0.0,0.0,0.0
03/04/2023,02:00:48,0.000,0.0,0.0,0.0
03/04/2023,02:01:49,0.000,0.0,0.0,0.0
03/04/2023,02:02:48,0.000,0.0,0.0,0.0
03/04/2023,02:03:48,0.000,0.0,0.0,0.0
03/04/2023,02:04:48,-0.001,0.0,0.0,0.0
03/04/2023,02:05:48,0.001,0.0,0.0,0.0
03/04/2023,02:06:49,0.001,0.0,0.0,0.0
03/04/2023,02:07:48,0.000,0.0,0.0,0.0
03/04/2023,02:08:49,-0.000,0.0,0.0,0.0
03/04/2023,02:09:48,0.001,0.0,0.0,0.0
03/04/2023,02:10:49,-0.000,0.0,0.0,0.0
03/04/2023,02:11:48,0.000,0.0,0.0,0.0
03/04/2023,02:12:48,0.001,0.0,0.0,0.0
03/04/2023,02:13:48,0.000,0.0,0.0,0.0
03/04/2023,02:14:48,0.002,0.0,0.0,0.0
03/04/2023,02:15:48,0.000,0.0,0.0,0.0
03/04/2023,02:16:48,0.001,0.0,0.0,0.0
03/04/2023,02:17:49,0.000,0.0,0.0,0.0
03/04/2023,02:18:49,0.000,0.0,0.0,0.0
03/04/2023,02:19:49,0.000,0.0,0.0,0.0
03/04/2023,02:20:48,0.002,0.0,0.0,0.0
03/04/2023,02:21:49,0.001,0.0,0.0,0.0
03/04/2023,02:22:49,-0.000,0.0,0.0,0.0
03/04/2023,02:23:49,0.001,0.0,0.0,0.0
03/04/2023,02:24:49,0.000,0.0,0.0,0.0
03/04/2023,02:25:49,0.001,0.0,0.0,0.0
03/04/2023,02:26:49,0.000,0.0,0.0,0.0
03/04/2023,02:27:48,0.001,0.0,0.0,0.0
03/04/2023,02:28:48,0.000,0.0,0.0,0.0
03/04/2023,02:29:48,0.000,0.0,0.0,0.0
03/04/2023,02:30:48,0.000,0.0,0.0,0.0
03/04/2023,02:31:49,0.000,0.0,0.0,0.0
03/04/2023,02:32:49,0.001,0.0,0.0,0.0
03/04/2023,02:33:48,0.001,0.0,0.0,0.0
03/04/2023,02:34:48,0.001,0.0,0.0,0.0
03/04/2023,02:35:48,0.000,0.0,0.0,0.0
03/04/2023,02:36:48,-0.001,0.0,0.0,0.0
03/04/2023,02:37:48,0.001,0.0,0.0,0.0
03/04/2023,02:38:48,0.001,0.0,0.0,0.0
03/04/2023,02:39:48,0.000,0.0,0.0,0.0
03/04/2023,02:40:48,0.000,0.0,0.0,0.0
03/04/2023,02:41:48,0.001,0.0,0.0,0.0
03/04/2023,02:42:48,0.000,0.0,0.0,0.0
03/04/2023,02:43:48,0.001,0.0,0.0,0.0
03/04/2023,02:44:48,0.001,0.0,0.0,0.0
03/04/2023,02:45:49,0.001,0.0,0.0,0.0
03/04/2023,02:46:49,0.001,0.0,0.0,0.0
03/04/2023,02:47:48,0.001,0.0,0.0,0.0
03/04/2023,02:48:49,0.000,0.0,0.0,0.0
03/04/2023,02:49:49,0.001,0.0,0.0,0.0
03/04/2023,02:50:48,0.001,0.0,0.0,0.0
03/04/2023,02:51:48,0.001,0.0,0.0,0.0
03/04/2023,02:52:48,0.001,0.0,0.0,0.0
03/04/2023,02:53:48,0.002,0.0,0.0,0.0
03/04/2023,02:54:48,0.000,0.0,0.0,0.0
03/04/2023,02:55:48,0.001,0.0,0.0,0.0
03/04/2023,02:56:48,0.001,0.0,0.0,0.0
03/04/2023,02:57:49,0.001,0.0,0.0,0.0
03/04/2023,02:58:49,0.000,0.0,0.0,0.0
03/04/2023,02:59:50,0.001,0.0,0.0,0.0
03/04/2023,03:00:48,0.001,0.0,0.0,0.0
03/04/2023,03:01:49,0.000,0.0,0.0,0.0
03/04/2023,03:02:49,0.001,0.0,0.0,0.0
03/04/2023,03:03:48,0.001,0.0,0.0,0.0
03/04/2023,03:04:49,0.001,0.0,0.0,0.0
03/04/2023,03:05:49,0.002,0.0,0.0,0.0
03/04/2023,03:06:49,-0.000,0.0,0.0,0.0
03/04/2023,03:07:49,0.002,0.0,0.0,0.0
03/04/2023,03:08:48,0.002,0.0,0.0,0.0
03/04/2023,03:09:48,0.001,0.0,0.0,0.0
03/04/2023,03:10:48,0.000,0.0,0.0,0.0
03/04/2023,03:11:48,0.001,0.0,0.0,0.0
03/04/2023,03:12:48,0.001,0.0,0.0,0.0
03/04/2023,03:13:48,0.001,0.0,0.0,0.0
03/04/2023,03:15:11,0.001,0.0,0.0,0.0
03/04/2023,03:16:49,0.001,0.0,0.0,0.0
03/04/2023,03:17:48,0.001,0.0,0.0,0.0
03/04/2023,03:18:49,0.001,0.0,0.0,0.0
03/04/2023,03:19:48,0.002,0.0,0.0,0.0
03/04/2023,03:20:49,0.001,0.0,0.0,0.0
03/04/2023,03:21:49,0.001,0.0,0.0,0.0
03/04/2023,03:22:49,0.002,0.0,0.0,0.0
03/04/2023,03:23:49,0.001,0.0,0.0,0.0
03/04/2023,03:24:48,0.001,0.0,0.0,0.0
03/04/2023,03:25:48,-0.000,0.0,0.0,0.0
03/04/2023,03:26:49,0.001,0.0,0.0,0.0
03/04/2023,03:27:48,0.001,0.0,0.0,0.0
03/04/2023,03:28:48,0.001,0.0,0.0,0.0
03/04/2023,03:29:49,0.000,0.0,0.0,0.0
03/04/2023,03:30:48,0.001,0.0,0.0,0.0
03/04/2023,03:31:50,0.001,0.0,0.0,0.0
03/04/2023,03:32:48,0.001,0.0,0.0,0.0
03/04/2023,03:33:48,0.001,0.0,0.0,0.0
03/04/2023,03:34:48,0.001,0.0,0.0,0.0
03/04/2023,03:35:49,0.001,0.0,0.0,0.0
03/04/2023,03:36:49,0.001,0.0,0.0,0.0
03/04/2023,03:37:48,0.001,0.0,0.0,0.0
03/04/2023,03:38:48,0.001,0.0,0.0,0.0
03/04/2023,03:39:48,0.001,0.0,0.0,0.0
03/04/2023,03:40:48,0.001,0.0,0.0,0.0
03/04/2023,03:41:48,0.000,0.0,0.0,0.0
03/04/2023,03:42:48,0.000,0.0,0.0,0.0
03/04/2023,03:43:49,0.002,0.0,0.0,0.0
03/04/2023,03:44:49,0.001,0.0,0.0,0.0
03/04/2023,03:45:49,0.001,0.0,0.0,0.0
03/04/2023,03:46:48,0.001,0.0,0.0,0.0
03/04/2023,03:47:48,0.001,0.0,0.0,0.0
03/04/2023,03:48:49,-0.001,0.0,0.0,0.0
03/04/2023,03:49:49,0.001,0.0,0.0,0.0
03/04/2023,03:50:49,0.000,0.0,0.0,0.0
03/04/2023,03:51:49,0.001,0.0,0.0,0.0
03/04/2023,03:52:49,-0.001,0.0,0.0,0.0
03/04/2023,03:53:49,0.000,0.0,0.0,0.0
03/04/2023,03:54:48,0.000,0.0,0.0,0.0
03/04/2023,03:55:48,-0.001,0.0,0.0,0.0
03/04/2023,03:56:48,0.000,0.0,0.0,0.0
03/04/2023,03:57:49,0.001,0.0,0.0,0.0
03/04/2023,03:58:49,0.000,0.0,0.0,0.0
03/04/2023,03:59:49,0.000,0.0,0.0,0.0
03/04/2023,04:00:49,-0.000,0.0,0.0,0.0
03/04/2023,04:01:49,0.000,0.0,0.0,0.0
03/04/2023,04:02:49,0.000,0.0,0.0,0.0
03/04/2023,04:03:48,0.000,0.0,0.0,0.0
03/04/2023,04:04:49,-0.000,0.0,0.0,0.0
03/04/2023,04:05:48,0.000,0.0,0.0,0.0
03/04/2023,04:06:48,0.000,0.0,0.0,0.0
03/04/2023,04:07:48,0.001,0.0,0.0,0.0
03/04/2023,04:08:49,0.000,0.0,0.0,0.0
03/04/2023,04:09:49,0.001,0.0,0.0,0.0
03/04/2023,04:10:49,-0.000,0.0,0.0,0.0
03/04/2023,04:11:48,0.000,0.0,0.0,0.0
03/04/2023,04:12:48,0.000,0.0,0.0,0.0
03/04/2023,04:13:49,0.000,0.0,0.0,0.0
03/04/2023,04:14:49,0.000,0.0,0.0,0.0
03/04/2023,04:15:49,0.000,0.0,0.0,0.0
03/04/2023,04:16:49,0.000,0.0,0.0,0.0
03/04/2023,04:17:49,0.001,0.0,0.0,0.0
03/04/2023,04:18:49,0.001,0.0,0.0,0.0
03/04/2023,04:19:49,-0.001,0.0,0.0,0.0
03/04/2023,04:20:48,0.000,0.0,0.0,0.0
03/04/2023,04:21:49,0.000,0.0,0.0,0.0
03/04/2023,04:22:49,0.000,0.0,0.0,0.0
03/04/2023,04:23:48,0.000,0.0,0.0,0.0
03/04/2023,04:24:48,0.000,0.0,0.0,0.0
03/04/2023,04:25:48,0.000,0.0,0.0,0.0
03/04/2023,04:26:49,0.001,0.0,0.0,0.0
03/04/2023,04:27:49,0.000,0.0,0.0,0.0
03/04/2023,04:28:49,0.000,0.0,0.0,0.0
03/04/2023,04:29:49,0.000,0.0,0.0,0.0
03/04/2023,04:30:49,0.001,0.0,0.0,0.0
03/04/2023,04:31:49,0.001,0.0,0.0,0.0
03/04/2023,04:32:48,0.001,0.0,0.0,0.0
03/04/2023,04:33:48,-0.000,0.0,0.0,0.0
03/04/2023,04:34:48,0.001,0.0,0.0,0.0
03/04/2023,04:35:49,0.000,0.0,0.0,0.0
03/04/2023,04:36:49,0.000,0.0,0.0,0.0
03/04/2023,04:37:49,0.000,0.0,0.0,0.0
03/04/2023,04:38:48,0.000,0.0,0.0,0.0
03/04/2023,04:39:49,0.002,0.0,0.0,0.0
03/04/2023,04:40:49,0.001,0.0,0.0,0.0
03/04/2023,04:41:49,0.001,0.0,0.0,0.0
03/04/2023,04:42:49,0.000,0.0,0.0,0.0
03/04/2023,04:43:48,0.000,0.0,0.0,0.0
03/04/2023,04:44:48,0.000,0.0,0.0,0.0
03/04/2023,04:45:48,-0.000,0.0,0.0,0.0
03/04/2023,04:46:48,0.001,0.0,0.0,0.0
03/04/2023,04:47:48,0.001,0.0,0.0,0.0
03/04/2023,04:48:49,0.001,0.0,0.0,0.0
03/04/2023,04:49:49,0.001,0.0,0.0,0.0
03/04/2023,04:50:49,0.001,0.0,0.0,0.0
03/04/2023,04:51:49,0.000,0.0,0.0,0.0
03/04/2023,04:52:48,0.002,0.0,0.0,0.0
03/04/2023,04:53:49,0.000,0.0,0.0,0.0
03/04/2023,04:54:49,0.001,0.0,0.0,0.0
03/04/2023,04:55:49,-0.000,0.0,0.0,0.0
03/04/2023,04:56:49,0.001,0.0,0.0,0.0
03/04/2023,04:57:49,0.001,0.0,0.0,0.0
03/04/2023,04:58:49,0.001,0.0,0.0,0.0
03/04/2023,04:59:48,0.001,0.0,0.0,0.0
03/04/2023,05:00:48,0.001,0.0,0.0,0.0
03/04/2023,05:01:49,0.000,0.0,0.0,0.0
03/04/2023,05:02:49,0.000,0.0,0.0,0.0
03/04/2023,05:03:49,0.001,0.0,0.0,0.0
03/04/2023,05:04:48,0.001,0.0,0.0,0.0
03/04/2023,05:05:48,-0.000,0.0,0.0,0.0
03/04/2023,05:06:49,0.000,0.0,0.0,0.0
03/04/2023,05:07:49,0.000,0.0,0.0,0.0
03/04/2023,05:08:49,0.001,0.0,0.0,0.0
03/04/2023,05:09:48,-0.001,0.0,0.0,0.0
03/04/2023,05:10:49,0.001,0.0,0.0,0.0
03/04/2023,05:11:49,0.000,0.0,0.0,0.0
03/04/2023,05:12:49,0.001,0.0,0.0,0.0
03/04/2023,05:13:49,0.000,0.0,0.0,0.0
03/04/2023,05:14:49,0.000,0.0,0.0,0.0
03/04/2023,05:15:49,0.001,0.0,0.0,0.0
03/04/2023,05:16:49,0.001,0.0,0.0,0.0
03/04/2023,05:17:48,0.001,0.0,0.0,0.0
03/04/2023,05:18:49,0.001,0.0,0.0,0.0
03/04/2023,05:19:48,0.000,0.0,0.0,0.0
03/04/2023,05:20:48,0.001,0.0,0.0,0.0
03/04/2023,05:21:48,-0.000,0.0,0.0,0.0
03/04/2023,05:22:49,0.000,0.0,0.0,0.0
03/04/2023,05:23:49,0.001,0.0,0.0,0.0
03/04/2023,05:24:50,0.000,0.0,0.0,0.0
03/04/2023,05:25:49,0.001,0.0,0.0,0.0
03/04/2023,05:26:48,0.002,0.0,0.0,0.0
03/04/2023,05:27:48,0.000,0.0,0.0,0.0
03/04/2023,05:28:49,0.001,0.0,0.0,0.0
03/04/2023,05:29:49,0.001,0.0,0.0,0.0
03/04/2023,05:30:48,0.001,0.0,0.0,0.0
03/04/2023,05:31:49,0.001,0.0,0.0,0.0
03/04/2023,05:32:49,0.001,0.0,0.0,0.0
03/04/2023,05:33:49,0.002,0.0,0.0,0.0
03/04/2023,05:34:49,0.002,0.0,0.0,0.0
03/04/2023,05:35:49,0.002,0.0,0.0,0.0
03/04/2023,05:36:48,0.002,0.0,0.0,0.0
03/04/2023,05:37:49,0.002,0.0,0.0,0.0
03/04/2023,05:38:49,0.003,0.0,0.0,0.0
03/04/2023,05:39:49,0.002,0.0,0.0,0.0
03/04/2023,05:40:49,0.003,0.0,0.0,0.0
03/04/2023,05:41:49,0.003,0.0,0.0,0.0
03/04/2023,05:42:48,0.003,0.0,0.0,0.0
03/04/2023,05:43:49,0.003,0.0,0.0,0.0
03/04/2023,05:44:49,0.003,0.0,0.0,0.0
03/04/2023,05:45:49,0.003,0.0,0.0,0.0
03/04/2023,05:46:49,0.003,0.0,0.0,0.0
03/04/2023,05:47:49,0.004,0.0,0.0,0.0
03/04/2023,05:48:48,0.004,0.0,0.0,0.0
03/04/2023,05:49:48,0.004,0.0,0.0,0.0
03/04/2023,05:50:48,0.005,0.0,0.0,0.0
03/04/2023,05:51:49,0.005,0.0,0.0,0.0
03/04/2023,05:52:49,0.004,0.0,0.0,0.0
03/04/2023,05:53:49,0.005,0.0,0.0,0.0
03/04/2023,05:54:49,0.005,0.0,0.0,0.0
03/04/2023,05:55:49,0.006,0.0,0.0,0.0
03/04/2023,05:56:48,0.006,0.0,0.0,0.0
03/04/2023,05:57:49,0.006,0.0,0.0,0.0
03/04/2023,05:58:48,0.007,0.0,0.0,0.0
03/04/2023,05:59:49,0.007,0.0,0.0,0.0
03/04/2023,06:00:49,0.008,0.0,0.001,0.001
03/04/2023,06:01:49,0.009,0.0,0.001,0.0
03/04/2023,06:02:49,0.008,0.0,0.001,0.0
03/04/2023,06:03:49,0.010,0.0,0.001,0.0
03/04/2023,06:04:48,0.009,0.0,0.001,0.0
03/04/2023,06:05:48,0.010,0.0,0.001,0.0
03/04/2023,06:06:48,0.011,0.0,0.001,0.0
03/04/2023,06:07:48,0.011,0.0,0.002,0.001
03/04/2023,06:08:48,0.012,0.0,0.002,0.0
03/04/2023,06:09:48,0.012,0.0,0.002,0.0
03/04/2023,06:10:48,0.013,0.0,0.002,0.0
03/04/2023,06:11:49,0.013,0.0,0.002,0.0
03/04/2023,06:12:49,0.013,0.0,0.003,0.001
03/04/2023,06:13:49,0.015,0.0,0.003,0.0
03/04/2023,06:14:49,0.015,0.0,0.003,0.0
03/04/2023,06:15:48,0.016,0.0,0.003,0.0
03/04/2023,06:16:49,0.016,0.0,0.004,0.001
03/04/2023,06:17:48,0.018,0.0,0.004,0.0
03/04/2023,06:18:49,0.017,0.0,0.004,0.0
03/04/2023,06:19:49,0.018,0.0,0.005,0.001
03/04/2023,06:20:49,0.019,0.0,0.005,0.0
03/04/2023,06:21:49,0.020,0.0,0.005,0.0
03/04/2023,06:22:49,0.020,0.0,0.006,0.001
03/04/2023,06:23:49,0.021,0.0,0.006,0.0
03/04/2023,06:24:49,0.022,0.0,0.006,0.0
03/04/2023,06:25:49,0.022,0.0,0.007,0.001
03/04/2023,06:26:49,0.023,0.0,0.007,0.0
03/04/2023,06:27:49,0.025,0.0,0.007,0.0
03/04/2023,06:28:49,0.025,0.0,0.008,0.001
03/04/2023,06:29:49,0.025,0.0,0.008,0.0
03/04/2023,06:30:49,0.027,0.0,0.009,0.001
03/04/2023,06:31:49,0.028,0.0,0.009,0.0
03/04/2023,06:32:49,0.029,0.0,0.01,0.001
03/04/2023,06:33:49,0.031,0.0,0.01,0.0
03/04/2023,06:34:49,0.030,0.0,0.011,0.001
03/04/2023,06:35:48,0.031,0.0,0.011,0.0
03/04/2023,06:36:49,0.033,0.0,0.012,0.001
03/04/2023,06:37:49,0.033,0.0,0.012,0.0
03/04/2023,06:38:48,0.035,0.0,0.013,0.001
03/04/2023,06:39:48,0.036,0.0,0.013,0.0
03/04/2023,06:40:49,0.036,0.0,0.014,0.001
03/04/2023,06:41:49,0.038,0.0,0.015,0.001
03/04/2023,06:42:48,0.040,0.0,0.015,0.0
03/04/2023,06:43:48,0.040,0.0,0.016,0.001
03/04/2023,06:44:48,0.040,0.0,0.017,0.001
03/04/2023,06:45:49,0.042,0.0,0.017,0.0
03/04/2023,06:46:49,0.043,0.0,0.018,0.001
03/04/2023,06:47:49,0.043,0.0,0.019,0.001
03/04/2023,06:48:49,0.046,0.0,0.019,0.0
03/04/2023,06:49:48,0.046,0.0,0.02,0.001
03/04/2023,06:50:49,0.047,0.0,0.021,0.001
03/04/2023,06:51:49,0.048,0.0,0.022,0.001
03/04/2023,06:52:49,0.049,0.0,0.023,0.001
03/04/2023,06:53:49,0.049,0.0,0.023,0.0
03/04/2023,06:54:49,0.050,0.0,0.024,0.001
03/04/2023,06:55:49,0.051,0.0,0.025,0.001
03/04/2023,06:56:49,0.052,0.0,0.026,0.001
03/04/2023,06:57:49,0.052,0.0,0.027,0.001
03/04/2023,06:58:49,0.053,0.0,0.028,0.001
03/04/2023,06:59:49,0.054,0.0,0.029,0.001
03/04/2023,07:00:49,0.055,0.0,0.029,0.0
03/04/2023,07:01:49,0.056,0.0,0.03,0.001
03/04/2023,07:02:49,0.057,0.0,0.031,0.001
03/04/2023,07:03:49,0.060,0.0,0.032,0.001
03/04/2023,07:04:49,0.060,0.0,0.033,0.001
03/04/2023,07:05:49,0.061,0.0,0.034,0.001
03/04/2023,07:06:49,0.062,0.0,0.035,0.001
03/04/2023,07:07:48,0.064,0.0,0.036,0.001
03/04/2023,07:08:48,0.065,0.0,0.037,0.001
03/04/2023,07:09:49,0.066,0.0,0.039,0.002
03/04/2023,07:10:49,0.068,0.0,0.04,0.001
03/04/2023,07:11:49,0.068,0.0,0.041,0.001
03/04/2023,07:12:49,0.070,0.0,0.042,0.001
03/04/2023,07:13:49,0.071,0.0,0.043,0.001
03/04/2023,07:14:49,0.075,0.0,0.044,0.001
03/04/2023,07:15:48,0.077,0.0,0.046,0.002
03/04/2023,07:16:48,0.078,0.0,0.047,0.001
03/04/2023,07:17:49,0.079,0.0,0.048,0.001
03/04/2023,07:18:49,0.081,0.0,0.05,0.002
03/04/2023,07:19:49,0.081,0.0,0.051,0.001
03/04/2023,07:20:49,0.082,0.0,0.052,0.001
03/04/2023,07:21:49,0.081,0.0,0.054,0.002
03/04/2023,07:22:49,0.080,0.0,0.055,0.001
03/04/2023,07:23:49,0.082,0.0,0.056,0.001
03/04/2023,07:24:49,0.086,0.0,0.058,0.002
03/04/2023,07:25:49,0.091,0.0,0.059,0.001
03/04/2023,07:26:49,0.093,0.0,0.061,0.002
03/04/2023,07:27:50,0.096,0.0,0.062,0.001
03/04/2023,07:28:50,0.099,0.0,0.064,0.002
03/04/2023,07:29:49,0.102,0.0,0.066,0.002
03/04/2023,07:30:49,0.104,0.0,0.067,0.001
03/04/2023,07:31:49,0.107,0.0,0.069,0.002
03/04/2023,07:32:49,0.111,0.0,0.071,0.002
03/04/2023,07:33:49,0.116,0.0,0.073,0.002
03/04/2023,07:34:49,0.124,0.0,0.075,0.002
03/04/2023,07:35:49,0.118,0.0,0.077,0.002
03/04/2023,07:36:49,0.120,0.0,0.079,0.002
03/04/2023,07:37:49,0.121,0.0,0.081,0.002
03/04/2023,07:38:49,0.122,0.0,0.083,0.002
03/04/2023,07:39:49,0.125,0.0,0.085,0.002
03/04/2023,07:40:49,0.128,0.0,0.087,0.002
03/04/2023,07:41:49,0.131,0.0,0.089,0.002
03/04/2023,07:42:49,0.130,0.0,0.091,0.002
03/04/2023,07:43:49,0.129,0.0,0.094,0.003
03/04/2023,07:44:48,0.130,0.0,0.096,0.002
03/04/2023,07:45:49,0.133,0.0,0.098,0.002
03/04/2023,07:46:49,0.135,0.0,0.1,0.002
03/04/2023,07:47:49,0.137,0.0,0.102,0.002
03/04/2023,07:48:49,0.137,0.0,0.105,0.003
03/04/2023,07:49:48,0.137,0.0,0.107,0.002
03/04/2023,07:50:49,0.139,0.0,0.109,0.002
03/04/2023,07:51:49,0.144,0.0,0.112,0.003
03/04/2023,07:52:49,0.146,0.0,0.114,0.002
03/04/2023,07:53:49,0.149,0.0,0.116,0.002
03/04/2023,07:54:49,0.152,0.0,0.119,0.003
03/04/2023,07:55:49,0.159,0.0,0.122,0.003
03/04/2023,07:56:49,0.163,0.0,0.124,0.002
03/04/2023,07:57:49,0.164,0.0,0.127,0.003
03/04/2023,07:58:49,0.168,0.0,0.13,0.003
03/04/2023,07:59:49,0.173,0.0,0.133,0.003
03/04/2023,08:00:49,0.175,0.0,0.136,0.003
03/04/2023,08:01:49,0.176,0.0,0.138,0.002
03/04/2023,08:02:49,0.184,0.0,0.141,0.003
03/04/2023,08:03:49,0.183,0.0,0.144,0.003
03/04/2023,08:04:48,0.186,0.0,0.148,0.004
03/04/2023,08:05:49,0.190,0.0,0.151,0.003
03/04/2023,08:06:49,0.190,0.0,0.154,0.003
03/04/2023,08:07:49,0.191,0.0,0.157,0.003
03/04/2023,08:08:49,0.191,0.0,0.16,0.003
03/04/2023,08:09:49,0.196,0.0,0.163,0.003
03/04/2023,08:10:49,0.201,0.0,0.167,0.004
03/04/2023,08:11:48,0.205,0.0,0.17,0.003
03/04/2023,08:12:49,0.208,0.0,0.174,0.004
03/04/2023,08:13:49,0.214,0.0,0.177,0.003
03/04/2023,08:14:49,0.217,0.0,0.181,0.004
03/04/2023,08:15:48,0.219,1.0,0.184,0.003
03/04/2023,08:16:49,0.225,1.0,0.188,0.004
03/04/2023,08:17:48,0.225,1.0,0.192,0.004
03/04/2023,08:18:48,0.232,1.0,0.196,0.004
03/04/2023,08:19:49,0.233,1.0,0.199,0.003
03/04/2023,08:20:49,0.240,1.0,0.203,0.004
03/04/2023,08:21:49,0.245,1.0,0.207,0.004
03/04/2023,08:22:48,0.250,1.0,0.211,0.004
03/04/2023,08:23:49,0.256,1.0,0.216,0.005
03/04/2023,08:24:49,0.259,1.0,0.22,0.004
03/04/2023,08:25:49,0.262,1.0,0.224,0.004
03/04/2023,08:26:49,0.264,1.0,0.229,0.005
03/04/2023,08:27:49,0.269,1.0,0.233,0.004
03/04/2023,08:28:49,0.272,1.0,0.238,0.005
03/04/2023,08:29:49,0.277,1.0,0.242,0.004
03/04/2023,08:30:49,0.296,1.0,0.247,0.005
03/04/2023,08:31:49,0.287,1.0,0.252,0.005
03/04/2023,08:32:49,0.299,1.0,0.257,0.005
03/04/2023,08:33:48,0.304,1.0,0.262,0.005
03/04/2023,08:34:49,0.315,1.0,0.267,0.005
03/04/2023,08:35:49,0.322,1.0,0.273,0.006
03/04/2023,08:36:48,0.313,1.0,0.278,0.005
03/04/2023,08:37:49,0.333,1.0,0.284,0.006
03/04/2023,08:38:49,0.320,1.0,0.289,0.005
03/04/2023,08:39:48,0.315,1.0,0.294,0.005
03/04/2023,08:40:49,0.313,1.0,0.3,0.006
03/04/2023,08:41:49,0.313,1.0,0.305,0.005
03/04/2023,08:42:49,0.322,1.0,0.31,0.005
03/04/2023,08:43:49,0.329,1.0,0.316,0.006
03/04/2023,08:44:49,0.332,1.0,0.321,0.005
03/04/2023,08:45:49,0.340,1.0,0.327,0.006
03/04/2023,08:46:49,0.340,1.0,0.333,0.006
03/04/2023,08:47:49,0.340,1.0,0.338,0.005
03/04/2023,08:48:48,0.383,1.0,0.344,0.006
03/04/2023,08:49:49,0.361,1.0,0.351,0.007
03/04/2023,08:50:48,0.375,1.0,0.356,0.005
03/04/2023,08:51:49,0.377,1.0,0.363,0.007
03/04/2023,08:52:49,0.372,1.0,0.369,0.006
03/04/2023,08:53:49,0.371,1.0,0.375,0.006
03/04/2023,08:54:49,0.374,1.0,0.381,0.006
03/04/2023,08:55:49,0.381,1.0,0.388,0.007
03/04/2023,08:56:48,0.429,1.0,0.394,0.006
03/04/2023,08:57:49,0.393,1.0,0.401,0.007
03/04/2023,08:58:48,0.401,1.0,0.408,0.007
03/04/2023,08:59:49,0.415,1.0,0.415,0.007
03/04/2023,09:00:49,0.402,1.0,0.422,0.007
03/04/2023,09:01:49,0.418,1.0,0.428,0.006
03/04/2023,09:02:49,0.452,1.0,0.435,0.007
03/04/2023,09:03:48,0.487,1.0,0.443,0.008
03/04/2023,09:04:48,0.449,1.0,0.451,0.008
03/04/2023,09:05:49,0.434,1.0,0.458,0.007
03/04/2023,09:06:49,0.415,1.0,0.465,0.007
03/04/2023,09:07:49,0.529,1.0,0.472,0.007
03/04/2023,09:08:49,0.418,1.0,0.479,0.007
03/04/2023,09:09:49,0.417,1.0,0.486,0.007
03/04/2023,09:10:49,0.420,1.0,0.494,0.008
03/04/2023,09:11:49,0.417,1.0,0.5,0.006
03/04/2023,09:12:49,0.425,1.0,0.507,0.007
03/04/2023,09:13:49,0.435,1.0,0.515,0.008
03/04/2023,09:14:49,0.437,1.0,0.522,0.007
03/04/2023,09:15:49,0.442,1.0,0.529,0.007
03/04/2023,09:16:49,0.452,1.0,0.537,0.008
03/04/2023,09:17:49,0.438,1.0,0.544,0.007
03/04/2023,09:18:49,0.531,1.0,0.551,0.007
03/04/2023,09:19:49,0.464,1.0,0.559,0.008
03/04/2023,09:20:48,0.470,1.0,0.567,0.008
03/04/2023,09:21:48,0.480,1.0,0.575,0.008
03/04/2023,09:22:49,0.467,1.0,0.583,0.008
03/04/2023,09:23:49,0.612,1.0,0.591,0.008
03/04/2023,09:24:49,0.652,2.0,0.602,0.011
03/04/2023,09:25:49,0.651,1.0,0.613,0.011
03/04/2023,09:26:49,0.648,1.0,0.624,0.011
03/04/2023,09:27:49,0.652,1.0,0.634,0.01
03/04/2023,09:28:49,0.653,2.0,0.645,0.011
03/04/2023,09:29:49,0.659,2.0,0.656,0.011
03/04/2023,09:30:49,0.663,2.0,0.667,0.011
03/04/2023,09:31:49,0.674,2.0,0.679,0.012
03/04/2023,09:32:49,0.682,2.0,0.69,0.011
03/04/2023,09:33:48,0.686,2.0,0.701,0.011
03/04/2023,09:34:49,0.688,2.0,0.713,0.012
03/04/2023,09:35:49,0.693,2.0,0.724,0.011
03/04/2023,09:36:49,0.691,2.0,0.736,0.012
03/04/2023,09:37:49,0.683,2.0,0.747,0.011
03/04/2023,09:38:49,0.682,2.0,0.758,0.011
03/04/2023,09:39:49,0.712,2.0,0.77,0.012
03/04/2023,09:40:48,0.721,2.0,0.782,0.012
03/04/2023,09:41:49,0.552,1.0,0.794,0.012
03/04/2023,09:42:49,0.551,1.0,0.803,0.009
03/04/2023,09:43:49,0.718,2.0,0.814,0.011
03/04/2023,09:44:49,0.738,2.0,0.827,0.013
03/04/2023,09:45:49,0.701,2.0,0.838,0.011
03/04/2023,09:46:49,0.744,2.0,0.851,0.013
03/04/2023,09:47:49,0.740,2.0,0.863,0.012
03/04/2023,09:48:49,0.761,2.0,0.876,0.013
03/04/2023,09:49:49,0.770,2.0,0.888,0.012
03/04/2023,09:50:49,0.780,2.0,0.901,0.013
03/04/2023,09:51:49,0.786,2.0,0.915,0.014
03/04/2023,09:52:48,0.787,2.0,0.927,0.012
03/04/2023,09:53:49,0.793,2.0,0.941,0.014
03/04/2023,09:54:49,0.799,2.0,0.954,0.013
03/04/2023,09:55:49,0.807,2.0,0.967,0.013
03/04/2023,09:56:49,0.813,2.0,0.981,0.014
03/04/2023,09:57:49,0.818,2.0,0.994,0.013
03/04/2023,09:58:50,0.828,2.0,1.009,0.015
03/04/2023,09:59:49,0.830,2.0,1.022,0.013
03/04/2023,10:00:49,0.832,2.0,1.036,0.014
03/04/2023,10:01:49,0.844,2.0,1.05,0.014
03/04/2023,10:02:49,0.845,2.0,1.064,0.014
03/04/2023,10:03:49,0.847,2.0,1.078,0.014
03/04/2023,10:04:49,0.852,2.0,1.093,0.015
03/04/2023,10:05:49,0.858,2.0,1.107,0.014
03/04/2023,10:06:49,0.861,2.0,1.121,0.014
03/04/2023,10:07:48,0.870,2.0,1.135,0.014
03/04/2023,10:08:49,0.881,2.0,1.15,0.015